This is the latest recevied weather packets stored in our database for station/object KB1JLI. If no packets are shown the sender has not sent any weather packets the latest 10 day(s).
| Time | Temp. | Humidity | Pressure | Rain* | Wind** | Luminosity | Snow |
|---|---|---|---|---|---|---|---|
| 1777975320 | 12.22° C | 76% | 1009.6 hPa | 0 mm | - | 10 W/m² | - |
| 1777975016 | 12.22° C | 76% | 1009.7 hPa | 0 mm | - | 9 W/m² | - |
| 1777974714 | 12.22° C | 76% | 1009.4 hPa | 0 mm | - | 8 W/m² | - |
| 1777974409 | 11.67° C | 77% | 1009.7 hPa | 0 mm | - | 5 W/m² | - |
| 1777974106 | 11.67° C | 77% | 1009.7 hPa | 0 mm | - | 4 W/m² | - |
| 1777973802 | 11.67° C | 77% | 1009.6 hPa | 0 mm | - | 3 W/m² | - |
| 1777973500 | 11.67° C | 77% | 1009.9 hPa | 0 mm | - | 2 W/m² | - |
| 1777973196 | 11.11° C | 78% | 1009.5 hPa | 0 mm | - | 1 W/m² | - |
| 1777972896 | 11.67° C | 77% | 1009.6 hPa | 0 mm | - | 0 W/m² | - |
| 1777972592 | 11.11° C | 77% | 1009.7 hPa | 0 mm | - | 0 W/m² | - |
| 1777972290 | 11.11° C | 77% | 1009.6 hPa | 0 mm | - | 0 W/m² | - |
| 1777971987 | 11.67° C | 76% | 1009.8 hPa | 0 mm | - | 0 W/m² | - |
| 1777971686 | 11.11° C | 78% | 1009.8 hPa | 0 mm | - | 0 W/m² | - |
| 1777971383 | 11.11° C | 79% | 1009.8 hPa | 0 mm | - | 0 W/m² | - |
| 1777971080 | 10.56° C | 79% | 1009.9 hPa | 0 mm | - | 0 W/m² | - |
| 1777970778 | 10.56° C | 79% | 1010 hPa | 0 mm | - | 0 W/m² | - |
| 1777970476 | 10.56° C | 78% | 1009.8 hPa | 0 mm | - | 0 W/m² | - |
| 1777970174 | 10.56° C | 79% | 1009.9 hPa | 0 mm | - | 0 W/m² | - |
| 1777969870 | 10.56° C | 78% | 1010 hPa | 0 mm | - | 0 W/m² | - |
| 1777969566 | 10.56° C | 78% | 1010 hPa | 0 mm | - | 0 W/m² | - |
| 1777969263 | 10.56° C | 78% | 1009.9 hPa | 0 mm | - | 0 W/m² | - |
| 1777968959 | 10.56° C | 77% | 1009.8 hPa | 0 mm | - | 0 W/m² | - |
| 1777968656 | 11.11° C | 76% | 1010 hPa | 0 mm | - | 0 W/m² | - |
| 1777968352 | 11.11° C | 76% | 1010 hPa | 0 mm | - | 0 W/m² | - |
| 1777968050 | 11.11° C | 76% | 1010 hPa | 0 mm | - | 0 W/m² | - |
* Rain latest hour (hover to see other rain measurements)
** Current wind speed in m/s (hover to see current wind gust speed)